Location: Adrasan
(36.3319°N, 30.4314°E)
Time: 07:46:26
(UTC+00:00)

COSMO-SKYMED 1 - Pass Details

Date: 22 May 2024
Orbit: 621 x 623 km, 97.9° (Epoch: 23 June)

Event Time Altitude Azimuth Distance (km) Brightness Sun altitude
Rises 01:55:44 0° 116° (ESE) 2,896 6.4 -9.7°
Reaches altitude 10° 01:59:26 10° 83° (E) 1,995 6.3 -9.1°
Maximum altitude 02:00:48 11° 65° (ENE) 1,908 6.6 -8.8°
Drops below altitude 10° 02:02:06 10° 47° (NE) 1,993 6.8 -8.6°
Sets 02:05:52 0° 13° (NNE) 2,911 6.8 -8.0°
